Location: Castillon
(43.1358°N, 0.8654°E)
Time: 18:43:56
(UTC+00:00)

USA 229 DEB - Pass Details

Date: 24 January 2021
Orbit: 965 x 1247 km, 63.4° (Epoch: 26 February)

Event Time Altitude Azimuth Distance (km) Brightness Sun altitude
Rises 18:31:53 0° 324° (NW) 3,949 7.0 -17.0°
Reaches altitude 10° 18:34:34 10° 329° (NNW) 3,027 6.3 -17.5°
Maximum altitude 18:41:47 60° 49° (NE) 1,342 3.9 -18.8°
Enters shadow 18:47:27 19° 124° (SE) 2,551 5.2 -19.8°
